Location: McCall
(45.0000°N, 116.0000°W)
Time: 22:08:02
(UTC-07:00)

Amateur Radio Satellites - All Passes

Search period start: 22 February 2017 21:38
Search period end: 23 February 2017 21:38
Location: McCall, 45.0000°N, 116.0000°W

Satellite Date Start Highest point End Downlink Frequencies (MHz)
Time Altitude Azimuth
AO-73 22 Feb 21:42:30 21:46:10 25° 267° (W) 21:49:56 145.935
ESTCUBE 1 22 Feb 21:50:29 21:52:18 12° 59° (ENE) 21:54:08 437.505/2401.250
Oscar 11 22 Feb 21:53:25 21:56:46 21° 267° (W) 22:00:08 .
UNISAT 6 22 Feb 22:12:12 22:16:18 28° 95° (E) 22:20:19 437.425
TIGRISAT 22 Feb 22:13:28 22:17:30 27° 94° (E) 22:21:29 435.000
RS-15 22 Feb 22:14:43 22:25:22 32° 345° (NNW) 22:36:07 29.354- 29.394
VELOX 1 22 Feb 22:29:41 22:30:21 10° 57° (ENE) 22:31:01 145.980
O/OREOS (USA 219) 22 Feb 22:36:46 22:38:00 11° 97° (E) 22:39:14 437.305
FO-29 22 Feb 22:43:23 22:50:24 36° 93° (E) 22:56:52 435.910
PRISM 22 Feb 22:55:11 22:59:03 43° 289° (WNW) 23:02:54 437.425
DELFI C3 22 Feb 22:55:40 22:57:22 12° 270° (W) 22:59:04 145.870
SPROUT 22 Feb 22:57:18 22:59:45 15° 62° (ENE) 23:02:12 437.525
YUBILEINY 22 Feb 23:15:18 23:23:44 55° 270° (W) 23:32:06 435.215
SO-50 22 Feb 23:20:36 23:25:04 47° 119° (ESE) 23:29:31 436.795
ESTCUBE 1 22 Feb 23:23:55 23:28:27 84° 256° (WSW) 23:33:00 437.505/2401.250
50 SAT 22 Feb 23:35:18 23:38:16 26° 69° (ENE) 23:41:14 437.505
DUCHIFAT 1 22 Feb 23:40:19 23:43:12 18° 92° (E) 23:46:05 145.980
EO-79 22 Feb 23:47:15 23:50:48 25° 94° (E) 23:54:19 145.935-145.965
UNISAT 6 22 Feb 23:48:46 23:53:00 34° 292° (WNW) 23:57:12 437.425
TIGRISAT 22 Feb 23:49:55 23:54:12 35° 292° (WNW) 23:58:27 435.000
VELOX 1 23 Feb 00:01:41 00:06:03 84° 79° (E) 00:10:29 145.980
AIST 2D 23 Feb 00:02:37 00:06:11 61° 101° (E) 00:09:42 435.315
DX 1 23 Feb 00:02:56 00:06:58 40° 70° (ENE) 00:11:01 434.975-435.025
POLYITAN 1 23 Feb 00:03:33 00:07:33 36° 97° (E) 00:11:31 437.675
NANOSAT C BR1 23 Feb 00:05:47 00:09:43 35° 97° (E) 00:13:38 145.865
QB50P2 23 Feb 00:06:20 00:10:25 42° 98° (E) 00:14:29 145.880/145.840
PCSat 23 Feb 00:12:12 00:15:01 14° 31° (NNE) 00:17:50 145.827
O/OREOS (USA 219) 23 Feb 00:12:13 00:16:41 79° 293° (WNW) 00:21:14 437.305
UKube-1 23 Feb 00:20:38 00:24:43 44° 70° (ENE) 00:28:50 .
FO-29 23 Feb 00:28:07 00:35:38 53° 293° (WNW) 00:42:33 435.910
SPROUT 23 Feb 00:31:00 00:35:11 59° 259° (W) 00:39:26 437.525
RS-15 23 Feb 00:31:42 00:42:40 34° 20° (NNE) 00:53:26 29.354- 29.394
BUGSAT 1 23 Feb 00:48:05 00:51:56 33° 97° (E) 00:55:47 437.445
ITUPSAT 1 23 Feb 00:57:42 00:58:29 10° 55° (NE) 00:59:16 437.325
SO-50 23 Feb 01:01:42 01:05:43 28° 318° (NW) 01:09:43 436.795
BEESAT 23 Feb 01:04:52 01:06:50 12° 57° (ENE) 01:08:49 436.000
50 SAT 23 Feb 01:08:43 01:11:24 20° 265° (W) 01:14:05 437.505
DUCHIFAT 1 23 Feb 01:15:01 01:19:07 45° 289° (WNW) 01:23:11 145.980
Oscar 19 23 Feb 01:15:14 01:18:59 20° 92° (E) 01:22:44 437.125/150
EO-79 23 Feb 01:22:45 01:26:35 33° 292° (WNW) 01:30:26 145.935-145.965
AIST 2D 23 Feb 01:38:11 01:38:55 11° 298° (WNW) 01:39:39 435.315
Gurwin Techsat 1B 23 Feb 01:38:12 01:41:57 19° 91° (E) 01:45:42 435.225
POLYITAN 1 23 Feb 01:39:45 01:43:09 23° 295° (WNW) 01:46:32 437.675
DX 1 23 Feb 01:40:05 01:43:19 20° 267° (W) 01:46:34 434.975-435.025
NANOSAT C BR1 23 Feb 01:41:51 01:45:15 23° 294° (WNW) 01:48:39 145.865
QB50P2 23 Feb 01:42:46 01:45:57 20° 296° (WNW) 01:49:06 145.880/145.840
MOZHAYETS 4 23 Feb 01:50:18 01:51:52 12° 58° (ENE) 01:53:28
PCSat 23 Feb 01:54:18 01:59:39 55° 53° (NE) 02:04:59 145.827
O/OREOS (USA 219) 23 Feb 01:55:15 01:56:54 12° 315° (NW) 01:58:35 437.305
UKube-1 23 Feb 01:57:59 02:00:58 18° 267° (W) 02:03:59 .
FO-29 23 Feb 02:15:34 02:18:50 13° 314° (NW) 02:22:04 435.910
BUGSAT 1 23 Feb 02:23:42 02:27:09 25° 294° (WNW) 02:30:37 437.445
ITUPSAT 1 23 Feb 02:30:39 02:35:26 73° 74° (ENE) 02:40:16 437.325
BEESAT 23 Feb 02:39:05 02:43:52 88° 81° (E) 02:48:42 436.000
KKS-1 23 Feb 02:42:01 02:42:26 10° 57° (ENE) 02:42:51 437.445
RS-15 23 Feb 02:45:23 02:57:48 72° 50° (NE) 03:09:43 29.354- 29.394
Oscar 19 23 Feb 02:53:39 02:58:38 54° 290° (WNW) 03:03:37 437.125/150
Gurwin Techsat 1B 23 Feb 03:17:04 03:22:19 61° 289° (WNW) 03:27:33 435.225
ITAMSAT 1 23 Feb 03:21:37 03:26:14 31° 96° (E) 03:30:49 435.822/435.867
STARS 23 Feb 03:22:08 03:23:51 12° 59° (ENE) 03:25:35 437.465
MOZHAYETS 4 23 Feb 03:23:38 03:28:17 87° 79° (ENE) 03:32:59
PCSat 23 Feb 03:38:23 03:42:41 24° 252° (WSW) 03:46:58 145.827
AO-7 23 Feb 03:47:16 03:55:02 41° 98° (E) 04:02:41 .
ITUPSAT 1 23 Feb 04:11:22 04:13:47 14° 271° (W) 04:16:13 437.325
KKS-1 23 Feb 04:13:49 04:18:13 81° 75° (ENE) 04:22:41 437.445
CUBESAT XI-V 23 Feb 04:16:05 04:20:36 50° 72° (ENE) 04:25:06 437.345
BEESAT 23 Feb 04:21:07 04:22:19 11° 272° (W) 04:23:31 436.000
M-CUBED/EXP-1 PRIME 23 Feb 04:40:14 04:43:30 63° 69° (ENE) 04:46:43 437.505
STARS 23 Feb 04:55:11 04:59:33 82° 255° (WSW) 05:03:58 437.465
RS-15 23 Feb 04:58:42 05:09:28 39° 254° (WSW) 05:19:53 29.354- 29.394
ITAMSAT 1 23 Feb 05:00:56 05:05:44 38° 293° (WNW) 05:10:31 435.822/435.867
AO-85 23 Feb 05:03:42 05:07:46 32° 117° (ESE) 05:11:36 145.980
MOZHAYETS 4 23 Feb 05:05:11 05:06:05 10° 273° (W) 05:06:59
AO-7 23 Feb 05:40:00 05:47:57 51° 298° (WNW) 05:55:50 .
CUTE-I 23 Feb 05:51:29 05:54:38 16° 89° (E) 05:57:47 437.470
KKS-1 23 Feb 05:54:33 05:55:22 10° 272° (W) 05:56:11 437.445
CUBESAT XI-V 23 Feb 05:54:59 05:58:15 19° 269° (W) 06:01:30 437.345
XW-2F 23 Feb 05:56:18 05:58:15 13° 90° (E) 06:00:12 145.980 - 146.000
KAITUO 1B 23 Feb 05:56:32 05:57:41 11° 89° (E) 05:58:49 145.475/437.950
XW-2D 23 Feb 05:59:02 06:01:23 15° 91° (E) 06:03:43 145.860 - 145.880
DOVE 4 23 Feb 06:01:41 06:05:21 22° 94° (E) 06:09:09 437.250
XW-2B 23 Feb 06:03:51 06:06:24 17° 92° (E) 06:08:57 145.730 - 145.750
SO-50 23 Feb 06:10:35 06:13:14 15° 32° (NNE) 06:15:51 436.795
XW-2C 23 Feb 06:12:02 06:15:02 21° 94° (E) 06:17:59 145.795 - 145.815
LilacSat-2 23 Feb 06:25:48 06:29:17 31° 96° (E) 06:32:43 437.200
NUDT-PHONESAT 23 Feb 06:32:44 06:36:05 29° 96° (E) 06:39:24 437.300
AO-85 23 Feb 06:44:08 06:48:10 32° 314° (NW) 06:51:57 145.980
STRAND 1 23 Feb 06:54:28 06:59:31 62° 72° (ENE) 07:04:37 437.568
HO-68 23 Feb 07:03:30 07:08:14 18° 89° (E) 07:12:56 435.675
KAITUO 1B 23 Feb 07:28:21 07:32:05 57° 286° (WNW) 07:35:46 145.475/437.950
XW-2F 23 Feb 07:29:00 07:32:41 47° 288° (WNW) 07:36:21 145.980 - 146.000
CUTE-I 23 Feb 07:29:52 07:35:16 75° 286° (WNW) 07:40:37 437.470
CUBEBUG 2 23 Feb 07:31:06 07:32:09 11° 86° (E) 07:33:11 437.445
XW-2D 23 Feb 07:32:09 07:35:48 41° 288° (WNW) 07:39:24 145.860 - 145.880
AO-7 23 Feb 07:34:59 07:38:48 14° 321° (NW) 07:42:37 .
CUTE 1.7 + AOD 2 23 Feb 07:36:24 07:39:48 23° 93° (E) 07:43:09 437.475
XW-2B 23 Feb 07:37:11 07:40:46 37° 289° (WNW) 07:44:18 145.730 - 145.750
DOVE 4 23 Feb 07:38:50 07:43:11 43° 289° (WNW) 07:47:46 437.250
BEESAT 3 23 Feb 07:43:17 07:47:11 81° 124° (SE) 07:51:10 437.485
XW-2C 23 Feb 07:45:52 07:49:16 30° 291° (WNW) 07:52:37 145.795 - 145.815
SO-50 23 Feb 07:50:00 07:54:31 72° 54° (NE) 07:58:58 436.795
LilacSat-2 23 Feb 08:00:26 08:03:24 21° 294° (WNW) 08:06:19 437.200
NUDT-PHONESAT 23 Feb 08:06:57 08:09:52 21° 293° (WNW) 08:12:46 437.300
UWE-3 23 Feb 08:11:55 08:15:05 18° 90° (E) 08:18:15 435.000/436.395/437.385
PRISM 23 Feb 08:12:17 08:14:56 17° 63° (ENE) 08:17:35 437.425
BEESAT 2 23 Feb 08:16:05 08:20:01 75° 123° (ESE) 08:24:02 435.950
XW-2A 23 Feb 08:24:13 08:27:39 60° 285° (WNW) 08:31:03 145.665 - 145.685
AAUSAT CUBESAT 2 23 Feb 08:34:37 08:38:19 32° 96° (E) 08:42:00 437.432
STRAND 1 23 Feb 08:35:40 08:39:07 18° 269° (W) 08:42:37 437.568
SEEDS 23 Feb 08:37:49 08:42:00 71° 101° (E) 08:46:09 437.485
ZACube-1 23 Feb 08:38:22 08:41:43 20° 91° (E) 08:45:00 437.345
O/OREOS (USA 219) 23 Feb 08:41:12 08:45:21 32° 57° (ENE) 08:49:28 437.305
HO-68 23 Feb 08:49:38 08:56:50 87° 288° (WNW) 09:03:59 435.675
FO-29 23 Feb 08:57:56 09:03:20 23° 54° (NE) 09:08:59 435.910
CUBEBUG 2 23 Feb 09:04:37 09:09:25 90° 286° (WNW) 09:14:10 437.445
CUTE 1.7 + AOD 2 23 Feb 09:11:52 09:15:42 34° 291° (WNW) 09:19:30 437.475
CUTE-I 23 Feb 09:12:13 09:14:24 13° 306° (NW) 09:16:35 437.470
UNISAT 6 23 Feb 09:12:45 09:16:42 31° 67° (ENE) 09:20:44 437.425
TIGRISAT 23 Feb 09:13:53 09:17:46 29° 67° (ENE) 09:21:45 435.000
ISS 23 Feb 09:14:34 09:17:31 30° 140° (SE) 09:20:28 437.550
BEESAT 3 23 Feb 09:22:53 09:25:20 16° 324° (NW) 09:27:48 437.485
AO-73 23 Feb 09:27:28 09:31:58 56° 99° (E) 09:36:23 145.935
SO-50 23 Feb 09:31:58 09:34:23 14° 250° (WSW) 09:36:49 436.795
Oscar 11 23 Feb 09:37:18 09:41:36 61° 101° (E) 09:45:51 .
Tancredo 1 23 Feb 09:45:33 09:48:46 60° 146° (SE) 09:51:59 437.200
PRISM 23 Feb 09:45:56 09:49:53 47° 260° (W) 09:53:50 437.425
UWE-3 23 Feb 09:47:17 09:51:52 53° 288° (WNW) 09:56:22 435.000/436.395/437.385
BEESAT 2 23 Feb 09:55:40 09:58:17 17° 323° (NW) 10:00:56 435.950
AAUSAT CUBESAT 2 23 Feb 10:10:21 10:13:38 24° 293° (WNW) 10:16:56 437.432
ZACube-1 23 Feb 10:13:49 10:18:13 46° 289° (WNW) 10:22:32 437.345
SEEDS 23 Feb 10:15:22 10:17:08 12° 299° (WNW) 10:18:54 437.485
O/OREOS (USA 219) 23 Feb 10:20:43 10:24:41 29° 256° (WSW) 10:28:38 437.305
YUBILEINY 23 Feb 10:22:19 10:30:12 38° 85° (E) 10:38:03 435.215
DELFI C3 23 Feb 10:28:03 10:32:00 72° 102° (ESE) 10:35:54 145.870
DUCHIFAT 1 23 Feb 10:34:14 10:37:01 18° 63° (ENE) 10:39:49 145.980
HO-68 23 Feb 10:38:43 10:43:36 20° 308° (NW) 10:48:29 435.675
AIST 2D 23 Feb 10:39:01 10:42:07 29° 70° (ENE) 10:45:16 435.315
FO-29 23 Feb 10:40:12 10:47:17 89° 255° (WSW) 10:55:06 435.910
EO-79 23 Feb 10:41:35 10:44:58 24° 66° (ENE) 10:48:23 145.935-145.965
CUBEBUG 2 23 Feb 10:43:17 10:45:18 13° 301° (WNW) 10:47:18 437.445
UNISAT 6 23 Feb 10:49:27 10:53:22 29° 265° (W) 10:57:24 437.425
TIGRISAT 23 Feb 10:50:24 10:54:23 31° 265° (W) 10:58:28 435.000
ISS 23 Feb 10:50:41 10:53:53 47° 338° (NNW) 10:57:06 437.550
POLYITAN 1 23 Feb 10:57:48 11:01:39 35° 69° (ENE) 11:05:33 437.675
NANOSAT C BR1 23 Feb 10:59:34 11:03:21 33° 69° (ENE) 11:07:10 145.865
QB50P2 23 Feb 11:00:33 11:04:30 40° 70° (ENE) 11:08:30 145.880/145.840
AO-73 23 Feb 11:04:43 11:07:46 18° 298° (WNW) 11:10:46 145.935
Oscar 11 23 Feb 11:14:45 11:17:15 15° 298° (WNW) 11:19:44 .
ESTCUBE 1 23 Feb 11:15:23 11:18:25 18° 92° (E) 11:21:25 437.505/2401.250
Tancredo 1 23 Feb 11:22:14 11:25:13 32° 344° (NNW) 11:28:12 437.200
BUGSAT 1 23 Feb 11:39:42 11:43:12 29° 68° (ENE) 11:46:45 437.445
VELOX 1 23 Feb 11:51:12 11:53:28 14° 90° (E) 11:55:42 145.980
DELFI C3 23 Feb 12:05:06 12:06:13 11° 299° (WNW) 12:07:20 145.870
DUCHIFAT 1 23 Feb 12:08:16 12:12:20 48° 261° (W) 12:16:27 145.980
AIST 2D 23 Feb 12:12:51 12:15:24 19° 267° (W) 12:18:00 435.315
SPROUT 23 Feb 12:15:20 12:18:32 20° 93° (E) 12:21:45 437.525
EO-79 23 Feb 12:16:45 12:20:35 33° 263° (W) 12:24:28 145.935-145.965
YUBILEINY 23 Feb 12:18:12 12:26:44 52° 286° (WNW) 12:35:18 435.215
ISS 23 Feb 12:28:04 12:30:53 25° 358° (N) 12:33:40 437.550
FO-29 23 Feb 12:28:38 12:33:24 19° 276° (W) 12:38:26 435.910
50 SAT 23 Feb 12:31:13 12:33:56 21° 95° (E) 12:36:38 437.505
Oscar 19 23 Feb 12:33:37 12:38:18 37° 67° (ENE) 12:43:00 437.125/150
POLYITAN 1 23 Feb 12:34:10 12:37:31 23° 266° (W) 12:40:55 437.675
NANOSAT C BR1 23 Feb 12:35:44 12:39:07 23° 266° (W) 12:42:33 145.865
QB50P2 23 Feb 12:37:20 12:40:27 20° 267° (W) 12:43:36 145.880/145.840
ESTCUBE 1 23 Feb 12:51:10 12:55:30 50° 289° (WNW) 12:59:49 437.505/2401.250
Tancredo 1 23 Feb 12:59:22 13:02:07 25° 5° (N) 13:04:52 437.200
AO-7 23 Feb 12:59:52 13:04:59 18° 44° (NE) 13:10:05 .
Gurwin Techsat 1B 23 Feb 13:00:48 13:05:39 37° 67° (ENE) 13:10:31 435.225
BUGSAT 1 23 Feb 13:15:11 13:18:33 25° 265° (W) 13:21:59 437.445
DX 1 23 Feb 13:24:43 13:29:02 57° 102° (ESE) 13:33:18 434.975-435.025
VELOX 1 23 Feb 13:25:57 13:30:19 63° 287° (WNW) 13:34:41 145.980
AO-85 23 Feb 13:32:47 13:36:35 46° 50° (NE) 13:40:23 145.980
UKube-1 23 Feb 13:41:14 13:45:32 62° 102° (ESE) 13:49:48 .
SPROUT 23 Feb 13:50:35 13:54:37 40° 290° (WNW) 13:58:39 437.525
50 SAT 23 Feb 14:04:10 14:07:02 24° 292° (WNW) 14:09:54 437.505
ISS 23 Feb 14:04:50 14:07:56 36° 18° (NNE) 14:11:01 437.550
Oscar 19 23 Feb 14:13:08 14:17:39 31° 264° (W) 14:22:12 437.125/150
BEESAT 3 23 Feb 14:21:52 14:24:10 15° 35° (NE) 14:26:27 437.485
YUBILEINY 23 Feb 14:23:29 14:26:06 11° 311° (NW) 14:28:42 435.215
ITUPSAT 1 23 Feb 14:30:25 14:33:21 16° 90° (E) 14:36:16 437.325
Tancredo 1 23 Feb 14:35:42 14:38:53 54° 24° (NNE) 14:42:02 437.200
BEESAT 23 Feb 14:38:04 14:41:30 19° 92° (E) 14:44:55 436.000
Gurwin Techsat 1B 23 Feb 14:40:55 14:45:37 32° 264° (W) 14:50:22 435.225
ITAMSAT 1 23 Feb 14:41:15 14:46:21 57° 71° (ENE) 14:51:29 435.822/435.867
AO-7 23 Feb 14:47:59 14:56:14 66° 65° (ENE) 15:04:29 .
BEESAT 2 23 Feb 14:55:24 14:57:39 14° 35° (NE) 14:59:55 435.950
DX 1 23 Feb 15:02:05 15:04:46 16° 299° (WNW) 15:07:27 434.975-435.025
AO-85 23 Feb 15:13:59 15:16:39 18° 247° (WSW) 15:19:19 145.980
MOZHAYETS 4 23 Feb 15:17:42 15:20:49 18° 91° (E) 15:23:55
UKube-1 23 Feb 15:18:38 15:21:05 15° 299° (WNW) 15:23:32 .
ISS 23 Feb 15:41:17 15:44:29 48° 216° (SW) 15:47:39 437.550
BEESAT 3 23 Feb 15:58:21 16:02:23 87° 55° (NE) 16:06:23 437.485
KKS-1 23 Feb 16:04:19 16:06:32 13° 90° (E) 16:08:44 437.445
ITUPSAT 1 23 Feb 16:06:51 16:11:37 62° 288° (WNW) 16:16:20 437.325
Tancredo 1 23 Feb 16:12:18 16:14:59 24° 222° (SW) 16:17:39 437.200
CUBESAT XI-V 23 Feb 16:13:25 16:14:14 10° 87° (E) 16:15:03 437.345
BEESAT 23 Feb 16:14:55 16:19:34 51° 290° (WNW) 16:24:11 436.000
ITAMSAT 1 23 Feb 16:22:26 16:26:11 20° 268° (W) 16:29:58 435.822/435.867
BEESAT 2 23 Feb 16:32:00 16:36:06 83° 57° (ENE) 16:40:08 435.950
PCSat 23 Feb 16:38:16 16:43:02 33° 111° (ESE) 16:47:50 145.827
AO-7 23 Feb 16:42:22 16:49:31 31° 265° (W) 16:56:43 .
XW-2D 23 Feb 16:43:34 16:44:49 11° 61° (ENE) 16:46:04 145.860 - 145.880
STARS 23 Feb 16:43:40 16:46:22 16° 91° (E) 16:49:04 437.465
XW-2B 23 Feb 16:48:09 16:49:47 12° 62° (ENE) 16:51:25 145.730 - 145.750
MOZHAYETS 4 23 Feb 16:53:48 16:58:17 52° 288° (WNW) 17:02:44
XW-2C 23 Feb 16:55:58 16:58:14 15° 64° (ENE) 17:00:31 145.795 - 145.815
DOVE 4 23 Feb 17:09:43 17:13:04 24° 66° (ENE) 17:16:26 437.250
LilacSat-2 23 Feb 17:09:47 17:12:48 22° 67° (ENE) 17:15:51 437.200
RS-15 23 Feb 17:11:42 17:21:59 36° 105° (ESE) 17:32:34 29.354- 29.394
NUDT-PHONESAT 23 Feb 17:14:32 17:17:15 19° 66° (ENE) 17:19:59 437.300
CUTE-I 23 Feb 17:14:37 17:19:16 32° 65° (ENE) 17:23:56 437.470
HO-68 23 Feb 17:35:16 17:40:05 20° 52° (NE) 17:44:53 435.675
KKS-1 23 Feb 17:39:05 17:43:31 66° 288° (WNW) 17:47:58 437.445
CUBESAT XI-V 23 Feb 17:47:37 17:52:14 85° 287° (WNW) 17:56:50 437.345
M-CUBED/EXP-1 PRIME 23 Feb 17:50:15 17:53:39 33° 104° (ESE) 17:57:16 437.505
KAITUO 1B 23 Feb 18:09:44 18:13:32 84° 77° (ENE) 18:17:22 145.475/437.950
XW-2F 23 Feb 18:11:11 18:15:01 79° 258° (WSW) 18:18:54 145.980 - 146.000
BEESAT 2 23 Feb 18:12:28 18:13:13 10° 252° (WSW) 18:13:58 435.950
XW-2D 23 Feb 18:14:39 18:18:28 68° 259° (W) 18:22:21 145.860 - 145.880
STARS 23 Feb 18:18:42 18:23:03 55° 288° (WNW) 18:27:23 437.465
XW-2B 23 Feb 18:19:41 18:23:29 61° 259° (W) 18:27:20 145.730 - 145.750
PCSat 23 Feb 18:21:10 18:26:18 43° 310° (NW) 18:31:28 145.827
XW-2C 23 Feb 18:28:21 18:32:04 47° 261° (W) 18:35:50 145.795 - 145.815
CUTE 1.7 + AOD 2 23 Feb 18:30:59 18:34:17 22° 66° (ENE) 18:37:35 437.475
CUBEBUG 2 23 Feb 18:31:10 18:32:45 12° 58° (ENE) 18:34:20 437.445
LilacSat-2 23 Feb 18:43:28 18:46:55 31° 264° (W) 18:50:25 437.200
DOVE 4 23 Feb 18:47:00 18:50:41 30° 264° (W) 18:54:23 437.250
NUDT-PHONESAT 23 Feb 18:47:31 18:50:58 33° 263° (W) 18:54:27 437.300
CUTE-I 23 Feb 18:54:15 18:59:12 38° 263° (W) 19:04:12 437.470
XW-2A 23 Feb 18:57:10 19:00:30 56° 74° (ENE) 19:03:52 145.665 - 145.685
STRAND 1 23 Feb 19:04:00 19:07:28 18° 91° (E) 19:10:56 437.568
UWE-3 23 Feb 19:10:53 19:13:59 19° 62° (ENE) 19:17:07 435.000/436.395/437.385
HO-68 23 Feb 19:19:38 19:26:49 84° 72° (ENE) 19:34:02 435.675
RS-15 23 Feb 19:21:26 19:33:29 76° 309° (NW) 19:45:58 29.354- 29.394
M-CUBED/EXP-1 PRIME 23 Feb 19:25:09 19:28:00 21° 298° (WNW) 19:31:00 437.505
AAUSAT CUBESAT 2 23 Feb 19:26:32 19:30:05 28° 68° (ENE) 19:33:38 437.432
CUBESAT XI-V 23 Feb 19:27:34 19:28:52 11° 302° (WNW) 19:30:08 437.345
SEEDS 23 Feb 19:30:52 19:35:03 61° 74° (ENE) 19:39:14 437.485
ZACube-1 23 Feb 19:36:03 19:39:18 20° 64° (ENE) 19:42:37 437.345
CUBEBUG 2 23 Feb 20:04:10 20:08:35 89° 257° (WSW) 20:13:12 437.445
CUTE 1.7 + AOD 2 23 Feb 20:05:54 20:09:54 38° 263° (W) 20:13:55 437.475
PCSat 23 Feb 20:09:17 20:11:12 12° 333° (NNW) 20:13:09 145.827
AO-73 23 Feb 20:24:17 20:28:37 53° 72° (ENE) 20:33:04 145.935
YUBILEINY 23 Feb 20:29:53 20:36:10 21° 59° (ENE) 20:42:25 435.215
Oscar 11 23 Feb 20:33:30 20:37:46 58° 73° (ENE) 20:42:05 .
STRAND 1 23 Feb 20:41:59 20:47:05 62° 288° (WNW) 20:52:09 437.568
UWE-3 23 Feb 20:45:40 20:50:00 52° 261° (W) 20:54:29 435.000/436.395/437.385
AAUSAT CUBESAT 2 23 Feb 21:01:56 21:05:29 27° 265° (W) 21:09:04 437.432
SEEDS 23 Feb 21:09:07 21:11:08 13° 271° (W) 21:13:09 437.485
HO-68 23 Feb 21:10:29 21:15:22 19° 271° (W) 21:20:17 435.675
ZACube-1 23 Feb 21:10:57 21:15:14 47° 262° (W) 21:19:38 437.345
DELFI C3 23 Feb 21:15:05 21:18:55 52° 73° (ENE) 21:22:47 145.870
PRISM 23 Feb 21:25:49 21:28:46 19° 93° (E) 21:31:42 437.425
